Location: Unspecified
(0.0000°N, 0.0000°E)
Time: 20:40:37
(UTC+00:00)

N. Korean satellite - Pass Details

Date: 22 March 2023
Orbit: 390 x 416 km, 97.3° (Epoch: 29 March)

Event Time Altitude Azimuth Distance (km) Brightness Sun altitude
Rises 05:27:27 0° 354° (N) 2,291 9.9 -9.9°
Reaches altitude 10° 05:29:36 10° 341° (NNW) 1,432 8.8 -9.4°
Maximum altitude 05:32:14 27° 281° (W) 804 7.1 -8.7°
Drops below altitude 10° 05:34:52 10° 221° (SW) 1,428 8.6 -8.0°
Sets 05:37:01 0° 208° (SSW) 2,284 9.7 -7.5°
